Wind_Speed
16 17 17 17 17 17 17 16 16 17 16 14 13 15 16 16 17 17 18 17 16 15 14 11 12 15 16 16 17 17 17 18 18 17 18 16 13 14 16 17 18 14 14 16 12 12 12 11 9 9 11 13 13 14 17 15 14 9 3 4 6 7 8 6 6 6 4 3 5 7 8 6 6 6 4 4 2 5 9 11 12 10 10 10 9 5 3 3
18 18 18 18 19 18 18 18 18 18 17 16 15 16 16 16 17 18 18 17 16 16 15 12 12 14 15 16 17 16 17 18 18 20 20 15 14 16 17 18 18 14 13 15 12 10 10 9 9 9 12 15 13 12 16 14 15 11 3 5 8 9 7 6 8 6 7 6 6 7 8 7 6 7 5 4 5 8 9 10 13 13 12 11 9 6 4 4
17 18 18 19 19 19 20 20 20 20 19 17 15 16 17 17 18 19 19 18 16 16 15 14 12 13 15 16 17 16 16 17 19 19 13 11 13 11 12 15 14 12 13 15 12 10 10 9 11 11 9 13 15 15 15 14 14 12 8 5 7 8 4 10 18 14 9 7 6 8 6 5 7 7 3 1 4 7 6 7 11 13 12 9 8 7 6 6
18 19 19 19 19 19 20 22 22 21 21 19 17 17 18 17 18 19 19 18 16 17 15 15 13 12 14 15 16 15 14 16 15 11 10 13 13 9 10 12 12 12 12 13 12 11 9 9 12 11 9 9 16 18 13 15 13 8 10 7 5 8 6 15 24 19 10 10 5 8 6 4 8 5 2 2 2 3 9 12 12 13 12 9 6 6 7 7
19 20 20 19 20 21 21 22 21 21 21 20 19 18 18 18 18 17 17 17 16 18 18 15 13 11 12 14 14 13 11 10 3 5 7 9 8 9 9 11 12 12 12 12 11 12 11 10 11 10 8 6 12 14 11 20 17 5 10 9 7 9 7 13 21 18 10 9 3 4 6 5 7 4 2 2 1 4 10 13 13 12 10 8 5 6 7 7
19 19 20 20 21 22 21 21 21 20 20 19 19 18 18 19 19 17 17 17 16 19 19 15 14 11 11 12 12 11 7 5 3 3 8 9 7 7 5 7 8 5 6 10 10 11 12 13 12 8 5 4 9 10 10 22 21 8 8 10 16 19 10 10 18 16 8 7 4 5 7 6 6 5 4 2 3 10 11 10 11 9 9 8 6 6 6 6
20 21 22 22 22 22 21 21 21 19 19 18 17 18 19 20 20 18 18 17 15 18 17 15 13 11 10 11 11 9 10 15 10 12 19 17 13 11 8 8 5 1 2 8 12 12 13 14 15 10 6 5 8 10 12 18 20 13 6 8 18 23 20 16 15 17 13 9 7 3 1 4 4 3 4 3 3 7 9 8 8 8 7 7 8 8 7 7
23 23 22 22 21 20 19 19 20 18 17 17 16 17 18 19 19 17 17 17 15 16 16 14 11 9 9 10 11 11 15 19 15 15 18 17 16 15 12 9 7 4 2 6 11 14 14 15 18 14 6 6 7 8 13 13 13 14 10 8 11 17 23 21 14 16 16 12 9 0 4 0 1 6 4 1 2 4 8 8 6 7 6 7 10 10 9 9
22 22 21 21 19 18 18 19 19 19 18 18 17 18 18 17 17 16 16 16 14 16 16 14 11 8 7 8 10 12 15 15 11 12 17 19 17 12 8 8 9 7 4 5 9 13 16 16 20 18 9 8 10 8 11 10 8 12 14 11 8 13 16 13 13 14 13 11 12 5 1 2 3 7 6 3 3 3 3 4 4 4 5 8 10 11 12 11
21 21 21 19 17 17 17 18 19 18 18 19 18 19 18 17 16 15 15 15 14 15 15 14 10 7 8 8 10 10 12 11 6 9 15 17 14 11 9 7 10 10 7 7 8 12 18 18 17 19 14 12 10 8 10 8 4 7 13 15 13 16 12 6 13 14 11 10 13 9 4 6 5 3 1 3 3 5 5 3 2 3 6 8 10 12 14 13
21 20 18 16 16 16 17 18 19 19 19 18 18 19 18 17 16 15 15 14 14 13 14 14 8 7 10 11 12 12 11 9 4 7 12 12 12 11 9 6 7 9 8 8 10 11 16 18 16 14 11 10 8 7 10 10 4 2 7 12 15 16 11 5 11 14 11 8 12 11 4 8 8 6 7 7 1 3 3 4 5 5 8 9 10 13 16 16
20 18 16 16 17 18 19 20 21 20 20 19 19 18 18 18 16 15 15 13 14 14 14 12 6 8 11 14 20 20 15 12 11 13 13 12 14 15 13 11 11 10 9 8 11 11 12 16 20 16 11 9 7 4 7 12 9 5 3 5 11 12 10 10 11 15 10 6 12 11 2 8 9 8 12 15 7 4 3 4 5 6 9 10 11 14 17 19
18 16 17 18 20 21 21 21 21 21 21 20 19 17 17 18 16 16 15 13 14 14 14 11 8 9 10 16 22 21 19 16 16 16 14 15 18 18 15 14 14 13 12 11 12 12 12 14 18 22 20 11 4 3 4 6 9 6 3 2 6 6 8 13 14 15 11 9 13 12 3 7 8 12 16 18 15 9 7 6 3 3 5 8 13 18 20 22
17 17 19 21 23 23 24 22 20 20 20 19 19 17 17 17 17 17 15 14 14 13 12 9 8 9 12 19 20 17 16 14 14 14 13 15 16 15 14 14 15 14 13 13 12 11 12 13 13 17 22 18 9 6 5 2 7 4 3 2 4 5 6 12 14 11 8 9 15 12 4 5 3 10 20 22 19 15 11 8 8 7 7 9 13 18 23 23
16 19 21 24 25 26 25 23 20 19 18 19 19 18 19 18 17 16 14 15 14 10 7 7 8 9 12 18 17 14 12 10 10 10 10 12 13 14 13 14 15 14 14 14 11 11 13 13 12 10 15 19 14 7 3 3 3 3 5 3 4 6 5 10 13 10 5 6 13 11 3 3 1 3 14 20 18 14 9 7 9 11 11 12 15 18 23 23
16 19 23 25 24 22 22 18 16 17 17 18 18 16 16 15 14 12 11 11 8 7 6 6 8 9 9 11 11 9 8 8 7 6 8 9 10 12 11 12 14 15 15 12 11 12 13 11 10 10 11 12 10 6 3 4 3 3 5 3 4 7 5 8 11 13 11 7 10 9 2 2 2 9 14 16 16 13 9 5 4 7 10 13 16 18 23 22
16 19 23 23 19 18 18 15 13 14 16 16 13 9 7 7 6 4 2 1 4 6 5 5 5 7 10 9 8 8 7 8 8 8 9 9 9 10 9 10 12 13 12 11 12 13 12 9 6 8 9 6 6 6 5 5 5 4 4 3 3 6 5 6 8 13 15 10 9 9 4 4 6 8 12 14 15 13 11 8 8 16 22 23 23 24 26 25
16 19 22 21 17 16 16 13 13 13 14 12 7 8 8 7 4 3 3 3 3 3 4 6 4 3 7 8 9 9 8 9 10 11 12 11 10 11 11 11 10 10 9 9 11 11 9 8 6 5 6 6 6 7 5 6 8 8 7 4 3 5 5 5 6 8 11 8 8 9 6 6 8 7 10 14 14 13 12 11 17 25 27 27 28 29 29 29
15 17 20 20 17 16 14 12 11 11 12 10 8 8 8 9 5 1 2 1 2 2 2 5 8 5 6 9 11 11 12 13 14 14 13 11 10 12 12 11 10 9 7 5 7 10 9 5 6 6 6 8 7 9 8 6 8 11 9 5 4 5 5 5 3 4 9 7 6 8 6 6 6 6 8 13 16 16 14 15 22 27 27 29 31 31 30 31
13 15 18 17 16 16 14 12 11 11 12 14 13 8 6 10 5 1 4 6 7 8 8 6 9 11 13 14 14 14 15 14 13 12 10 10 10 11 11 10 8 6 5 4 5 10 11 5 6 8 9 12 12 12 11 9 6 6 8 7 6 5 5 6 3 2 8 6 5 7 4 5 4 5 6 10 14 12 13 20 25 25 26 29 32 32 31 30
13 14 16 15 15 15 13 13 12 12 13 14 15 9 6 9 4 2 10 9 7 8 10 10 9 13 15 14 15 14 11 9 8 8 9 10 8 7 9 9 5 3 6 8 5 5 9 6 9 11 11 13 14 13 11 10 4 3 5 7 7 6 4 5 5 5 8 6 5 6 4 4 0 5 6 9 11 11 15 23 26 26 27 28 31 31 30 29
13 14 15 15 15 14 12 13 13 13 13 11 11 9 6 7 6 6 8 6 8 8 8 11 10 12 13 13 13 9 7 7 5 6 6 6 6 6 8 9 5 3 5 7 5 2 6 8 11 13 12 12 12 12 10 10 5 4 3 5 5 5 2 2 4 5 5 4 5 7 6 3 6 13 14 14 16 19 23 25 26 28 28 27 28 29 29 30
13 14 15 15 14 12 11 11 12 13 12 9 7 7 6 7 9 9 5 5 9 8 6 8 8 11 11 9 9 7 6 7 5 4 3 2 6 8 8 8 5 4 3 5 5 4 5 9 14 13 11 12 11 12 11 8 6 4 3 3 3 5 4 2 4 6 4 1 2 7 6 3 8 13 13 14 21 27 29 31 32 33 32 30 30 29 30 30
13 14 14 15 14 11 9 10 11 12 9 7 6 7 9 8 9 8 4 5 6 4 6 7 7 9 8 8 8 6 6 8 5 2 3 3 5 6 7 7 6 4 4 6 7 6 6 8 12 12 11 13 11 12 12 7 5 5 4 3 3 5 4 2 5 8 5 3 2 7 5 2 7 12 10 11 20 26 26 31 32 31 31 31 32 32 31 31
12 13 13 15 14 11 9 8 8 9 8 6 6 8 9 8 9 6 3 3 3 3 5 5 5 5 5 8 5 4 7 6 4 5 6 6 5 4 4 5 5 4 6 7 7 6 8 9 11 12 11 13 11 10 12 8 5 5 5 6 6 7 6 6 7 8 6 1 1 4 4 3 7 12 10 7 13 18 21 27 27 27 28 28 29 29 29 30
11 13 14 14 15 13 10 6 6 9 9 6 6 9 9 9 9 4 2 3 1 3 6 5 5 4 6 6 3 5 6 3 5 8 8 8 6 4 4 3 3 3 5 6 4 2 4 9 10 12 13 14 11 10 12 10 6 4 5 9 9 8 9 8 6 5 4 2 1 1 2 4 5 9 9 7 11 14 16 21 23 25 26 27 27 26 26 27
11 12 13 15 16 16 13 9 9 9 7 8 12 11 8 9 7 3 3 2 1 3 5 5 5 5 8 7 5 6 3 4 9 6 4 6 5 4 2 2 3 3 3 3 1 1 1 6 10 13 13 12 9 8 12 11 5 3 6 10 10 9 10 9 7 4 1 2 2 4 2 5 4 6 6 6 11 13 13 15 19 23 25 26 26 26 26 26
10 11 13 15 15 16 17 14 11 8 7 14 17 11 6 5 4 2 3 1 2 5 3 4 5 5 12 13 6 4 3 5 6 4 3 1 2 3 3 1 2 3 2 3 3 1 3 4 11 14 12 10 8 7 12 12 4 4 8 9 8 9 10 9 8 5 1 1 1 4 3 4 4 5 4 3 10 13 12 13 15 20 23 23 25 25 25 26
10 10 12 15 15 16 18 15 10 9 14 19 19 10 2 1 1 2 2 1 2 3 3 5 6 7 15 14 3 1 3 3 2 5 6 3 2 2 1 0 2 3 1 1 2 2 1 6 5 8 8 7 7 8 12 10 4 6 8 6 7 8 9 8 6 5 3 2 2 1 3 3 4 4 2 2 7 10 10 10 13 18 21 21 22 23 23 25
9 10 11 15 16 18 17 11 8 14 19 19 15 7 2 1 3 1 1 1 1 3 5 5 7 10 14 10 2 2 2 0 2 4 5 5 5 4 1 1 2 2 2 2 1 1 6 7 1 4 1 4 5 8 11 9 10 11 8 6 7 5 4 5 3 3 4 1 2 4 2 2 4 3 3 3 6 8 8 9 12 16 18 19 20 20 21 23
8 9 11 14 16 19 18 12 11 18 21 17 11 5 4 2 2 1 3 1 0 4 6 4 6 10 12 7 3 3 1 2 3 3 3 3 4 4 2 1 1 2 2 3 2 1 3 3 3 3 4 5 5 6 7 10 14 12 5 5 6 3 3 3 1 0 3 1 3 6 6 6 4 3 4 5 8 9 10 10 11 14 16 17 17 18 19 20
7 8 10 13 16 18 19 17 17 19 20 16 8 4 1 2 1 3 4 2 1 4 5 5 7 9 9 6 5 4 1 1 2 2 2 1 1 3 3 2 2 1 3 2 2 2 4 5 5 6 7 8 1 6 5 6 9 7 5 6 4 2 1 1 1 1 2 2 4 8 7 7 5 3 5 8 10 11 14 13 13 15 15 15 16 17 18 20
7 8 9 12 16 18 18 18 18 18 18 16 6 2 2 2 3 4 5 4 3 5 4 5 8 9 7 4 5 4 2 2 2 1 1 1 2 3 3 5 7 3 2 0 2 3 2 2 9 9 5 8 5 5 4 4 5 5 5 4 3 4 3 2 3 3 2 2 4 6 7 6 4 3 4 8 11 14 18 17 16 16 15 15 15 15 17 19
7 9 10 13 17 19 19 17 15 15 17 15 6 2 2 5 3 5 5 4 5 7 6 6 9 8 3 2 3 3 2 4 4 3 3 2 4 6 5 8 12 6 1 1 3 3 2 2 7 7 4 8 5 4 1 4 6 4 2 2 2 3 2 3 3 2 3 3 3 2 4 3 5 4 5 9 13 16 17 17 16 16 14 14 14 14 16 17
7 9 10 15 19 18 17 13 11 13 15 11 5 3 5 5 3 4 4 5 5 6 10 9 7 5 4 4 4 5 4 3 4 5 7 6 5 6 7 7 11 8 2 2 2 1 4 4 4 4 6 6 5 5 5 4 5 1 2 1 2 1 1 2 1 4 7 4 3 3 3 3 5 6 7 10 13 14 15 15 14 14 13 13 13 13 14 14
8 9 11 15 17 15 13 10 9 14 15 7 4 6 5 3 2 3 5 7 6 7 11 9 4 5 7 5 6 8 5 3 4 4 5 5 5 8 8 5 7 9 5 3 2 1 3 3 3 4 2 5 10 8 7 5 1 1 1 3 1 2 2 3 1 4 7 4 3 4 3 4 5 5 6 9 10 10 12 12 12 13 11 12 12 12 12 13
9 8 8 13 15 12 12 9 6 12 14 7 5 5 2 1 3 5 7 9 8 6 6 4 4 6 6 5 6 11 8 3 5 5 4 4 4 8 10 7 8 9 9 6 2 1 2 4 3 5 5 8 12 12 11 10 5 3 3 1 2 2 1 2 2 2 3 3 3 3 6 7 4 3 6 9 9 9 9 10 11 12 11 10 10 10 11 11
8 5 5 13 14 10 12 10 5 5 7 6 6 5 1 2 4 8 10 11 8 5 3 4 4 4 5 5 5 9 9 5 5 4 3 4 3 6 9 8 9 12 15 11 3 2 3 4 4 7 5 4 8 9 8 10 10 4 4 1 0 2 2 1 2 2 2 3 3 3 6 5 3 4 8 9 9 10 9 8 9 9 9 9 9 9 9 10
6 2 4 13 13 10 11 11 9 7 4 4 5 3 2 2 6 10 13 11 7 4 4 5 5 3 4 4 3 6 7 6 6 4 3 4 2 4 9 7 9 15 20 14 3 1 2 3 1 6 6 2 4 6 3 5 8 4 2 2 2 2 1 0 1 2 2 3 3 4 5 2 1 3 10 11 9 10 9 7 8 9 9 8 8 8 8 9
5 2 5 11 10 8 9 13 17 14 6 3 3 2 2 3 7 12 15 12 6 4 3 4 6 4 4 5 5 5 6 6 6 4 3 4 2 2 8 9 8 15 19 13 3 1 3 2 3 4 7 4 3 4 2 2 4 4 4 4 3 2 1 1 2 2 2 2 3 4 3 1 1 1 8 11 8 8 9 7 8 10 9 8 8 8 8 9
6 2 5 10 7 6 8 12 14 9 3 3 3 1 3 4 8 13 16 14 7 5 5 3 4 4 3 5 6 5 5 5 5 4 3 5 4 1 8 14 12 11 11 7 5 4 3 3 3 3 6 5 3 1 1 2 3 3 4 2 2 3 2 3 2 2 2 2 3 4 2 1 1 2 5 8 7 7 10 10 10 10 10 8 8 8 8 8
8 2 6 9 7 9 11 10 8 6 3 3 2 2 5 6 7 11 15 15 9 6 7 4 3 4 3 4 4 5 5 4 4 4 3 4 5 3 11 21 19 12 6 3 3 6 4 4 5 5 4 2 1 0 1 1 3 2 4 4 3 2 3 3 2 1 2 2 2 3 2 1 1 4 7 8 8 10 10 11 11 10 9 8 7 7 7 7
10 7 9 8 4 8 10 7 4 5 4 1 1 2 5 6 7 9 12 13 9 7 7 5 5 5 4 1 2 3 4 4 4 5 4 3 5 7 14 23 21 13 7 3 4 8 6 2 4 4 2 1 1 2 2 1 1 3 4 5 4 2 2 3 2 1 1 1 1 1 2 1 1 5 10 11 11 10 9 10 11 11 10 9 8 7 6 6
8 10 15 12 3 4 7 4 3 4 2 1 1 3 4 4 8 9 8 10 9 6 4 4 6 7 4 1 2 4 4 3 3 6 5 3 4 9 16 22 19 11 7 4 4 7 5 2 2 3 3 3 3 3 5 4 4 4 2 4 5 4 4 3 1 2 1 1 2 3 2 1 2 5 9 11 10 10 9 9 10 11 10 9 8 6 5 5
5 5 13 19 12 10 9 5 4 4 2 2 3 5 4 3 7 10 7 7 11 9 4 4 7 7 6 3 3 7 8 5 3 4 6 4 3 7 15 19 18 14 10 6 7 7 3 2 2 3 4 2 2 2 1 2 2 2 2 4 5 6 5 3 2 3 1 2 3 2 1 2 4 5 6 8 8 8 9 10 9 9 9 9 8 6 5 4
5 2 6 13 16 17 14 10 7 3 1 2 2 4 6 3 4 9 8 6 10 12 7 7 9 7 5 6 5 7 9 6 4 3 4 5 3 4 10 13 18 22 17 12 13 7 3 3 5 5 5 4 3 2 1 2 1 2 2 4 5 5 5 3 2 2 1 1 3 1 5 7 7 7 8 8 7 7 8 10 10 9 9 8 8 7 5 3
4 3 3 4 8 11 11 12 12 6 2 2 1 2 6 5 4 6 8 6 9 12 7 7 10 7 4 7 4 5 7 5 4 4 4 5 3 4 5 8 16 25 20 14 15 6 4 4 6 6 8 6 4 4 4 4 4 4 3 4 5 5 5 4 4 1 0 1 1 1 6 9 9 10 10 8 7 6 8 9 9 9 9 9 8 7 4 2
5 3 4 3 2 4 5 7 10 8 6 5 3 2 4 7 5 5 6 7 8 12 8 4 10 11 8 7 3 3 7 4 5 6 5 6 5 5 6 3 10 24 20 11 13 8 4 3 4 3 7 7 6 6 6 6 5 4 4 4 5 5 5 4 3 1 2 3 3 3 4 5 8 11 10 8 8 8 8 9 9 9 10 10 9 6 3 1
8 6 7 8 4 3 4 6 6 5 6 5 3 3 4 6 6 4 5 6 4 10 10 5 7 11 11 10 4 3 6 4 3 5 5 6 6 6 6 3 7 21 20 7 8 9 3 2 3 3 5 6 6 6 5 6 5 4 3 3 4 4 3 3 2 3 5 3 4 5 5 3 4 8 8 10 11 10 8 8 9 10 10 10 9 5 2 2
9 7 7 10 8 5 7 8 6 2 4 4 3 1 2 5 5 3 5 6 3 6 9 6 6 8 9 11 8 6 7 6 3 5 5 6 5 4 4 2 5 15 14 5 5 10 6 2 2 3 3 4 6 5 5 5 4 2 3 3 1 1 1 1 0 1 2 1 3 7 7 3 3 8 12 13 12 9 8 9 9 10 10 10 8 4 1 3
11 9 7 7 5 5 7 7 6 2 3 5 3 1 2 3 3 2 3 7 6 4 5 5 7 5 6 9 9 6 7 7 5 6 6 5 4 4 3 3 5 8 8 5 5 7 5 2 2 2 3 2 5 5 5 5 3 3 5 4 2 2 1 1 0 1 1 2 3 5 5 2 4 11 12 12 12 9 8 8 8 9 11 10 7 4 2 3
9 8 7 7 4 4 5 5 5 3 2 3 4 3 3 2 2 2 1 4 8 7 5 5 7 5 4 7 7 5 7 7 5 5 5 4 4 4 4 4 5 5 4 4 3 3 2 1 1 3 3 2 4 5 5 5 4 4 3 2 3 3 3 2 1 1 1 2 3 4 3 3 8 11 9 8 10 9 8 7 7 9 12 11 9 6 2 3
Wind_Direction
330 330 329 327 325 324 325 325 322 319 319 315 306 305 306 305 304 299 294 292 287 277 277 292 310 318 320 317 310 309 307 305 305 297 286 281 277 269 265 258 252 257 268 276 269 246 246 259 258 229 227 229 221 218 210 200 196 192 190 211 207 215 218 222 225 218 233 200 145 160 183 192 151 140 140 143 146 116 108 105 100 89 84 77 85 103 73 74
331 330 328 325 325 324 322 318 317 315 314 317 312 304 301 299 299 297 296 296 295 285 273 278 300 311 317 317 315 313 308 307 301 292 294 290 272 267 267 263 265 263 253 261 261 247 250 265 256 229 227 225 213 206 208 203 192 193 205 214 214 210 210 259 275 267 257 224 168 170 191 202 153 132 159 177 172 154 128 127 124 104 92 79 67 66 59 75
328 326 325 324 325 324 322 317 314 311 307 309 308 304 299 296 295 295 297 297 299 297 279 269 283 304 314 317 319 318 312 308 298 290 289 263 248 252 259 265 271 260 240 245 247 240 250 259 252 246 247 234 215 197 196 197 197 210 214 216 224 211 207 252 264 285 293 260 192 167 186 189 144 135 187 175 152 159 113 107 118 100 97 93 62 47 60 76
326 325 325 325 324 322 321 319 315 310 305 302 300 300 298 297 295 294 296 297 299 301 288 267 269 294 310 316 321 322 317 307 288 259 225 226 236 237 255 276 280 259 234 233 236 234 244 253 252 258 266 249 218 201 193 188 187 202 210 225 227 204 215 230 248 275 281 262 231 172 189 162 142 158 175 128 165 146 74 72 81 76 79 89 63 44 71 75
327 325 326 324 322 320 321 321 318 313 306 299 297 298 299 299 296 295 294 294 296 297 294 274 262 280 301 314 321 324 321 305 254 167 198 217 232 246 269 291 283 263 236 223 230 233 235 243 250 260 261 250 214 205 203 194 186 187 220 245 257 225 221 218 244 270 251 233 248 196 210 143 136 175 156 165 201 98 82 77 79 74 71 82 72 57 84 82
323 323 322 321 319 318 319 319 319 319 312 301 295 296 300 300 297 297 293 290 290 292 297 284 260 264 293 311 317 319 305 266 133 67 307 290 274 268 285 294 274 270 249 222 222 232 230 233 238 245 248 240 218 211 204 196 193 210 227 234 250 253 252 219 232 242 215 184 189 229 217 159 156 178 158 191 90 99 100 84 82 79 71 78 79 74 89 92
317 317 315 316 315 314 316 318 319 320 319 309 298 296 297 297 294 294 294 288 285 287 296 295 267 257 286 308 313 304 259 256 276 298 297 297 291 282 284 284 253 202 281 228 223 227 223 227 228 232 245 240 227 219 209 196 195 213 222 205 231 247 254 255 236 206 189 174 181 240 237 169 177 134 130 155 96 103 106 91 85 80 74 78 81 84 93 94
317 318 316 316 315 315 316 319 319 317 317 314 308 302 298 296 291 291 293 287 282 283 290 296 277 260 283 311 316 295 264 265 286 291 285 288 290 294 291 270 240 213 261 237 229 227 222 226 225 227 239 236 248 241 215 200 199 212 219 211 214 233 243 258 250 193 180 179 179 179 19 53 16 13 348 174 127 121 108 96 83 74 76 80 80 84 92 92
322 320 318 318 315 317 318 318 318 315 314 312 311 308 304 299 291 289 291 286 285 285 288 289 276 264 271 296 302 287 275 273 281 279 276 282 285 298 302 254 231 234 263 254 235 229 224 224 224 225 237 257 275 274 225 205 210 213 215 222 215 235 246 262 256 208 173 170 172 166 9 266 330 357 326 287 231 211 135 108 88 71 85 86 80 85 91 92
322 319 318 318 317 318 319 319 317 314 312 310 310 308 305 300 292 290 286 283 282 283 291 287 271 264 257 271 284 272 277 284 291 281 278 287 290 292 297 265 235 235 252 255 242 234 228 226 225 227 244 272 286 275 234 212 217 217 218 229 227 235 248 276 271 235 186 179 178 176 192 217 263 314 267 274 256 233 236 198 128 87 107 99 81 86 89 87
323 324 323 324 323 321 320 319 317 315 312 310 309 306 303 299 293 291 287 281 277 277 287 282 263 259 252 253 259 251 265 277 285 288 282 297 312 302 282 267 260 246 243 247 244 240 234 233 227 224 235 251 267 273 244 227 235 252 217 232 232 228 227 234 280 255 205 187 183 179 190 202 223 243 222 237 211 115 185 161 124 110 111 109 94 90 86 80
326 327 329 329 325 321 318 316 314 312 310 309 308 306 303 299 294 292 289 285 280 274 276 275 253 247 254 255 251 250 264 271 272 280 274 276 287 288 273 266 277 261 241 242 238 241 247 239 228 222 217 221 241 263 246 226 222 254 230 229 231 228 226 212 252 259 223 196 186 170 183 211 209 215 215 225 214 126 166 156 121 112 100 108 111 99 85 77
330 332 333 327 321 318 315 312 309 306 306 305 306 307 302 296 293 289 284 282 281 274 269 265 247 241 249 256 255 263 280 280 280 280 268 263 268 273 275 275 273 258 243 238 229 235 248 245 233 227 225 228 234 239 271 214 192 214 222 218 220 223 235 206 219 250 236 215 188 161 199 228 212 211 206 214 215 201 205 210 203 171 120 119 112 98 88 79
334 335 332 325 319 314 310 306 304 305 306 303 303 305 303 298 292 287 281 276 274 274 266 242 225 232 243 257 268 285 290 280 278 280 269 263 265 267 271 271 266 253 241 238 232 236 240 247 247 235 233 237 244 274 301 208 170 172 178 209 204 209 227 192 194 226 231 214 181 163 237 234 205 212 200 200 205 206 207 215 217 199 175 144 120 104 92 81
338 338 332 325 318 315 310 303 300 305 307 305 305 305 301 297 291 286 280 273 269 263 242 208 208 227 250 269 281 292 294 285 282 287 275 260 260 264 261 260 263 253 242 239 240 243 236 241 245 234 236 235 237 264 281 194 183 167 175 192 193 209 216 179 183 190 197 215 180 170 239 215 56 86 165 179 184 188 191 202 207 192 183 157 131 110 92 78
343 342 333 325 323 327 325 313 305 306 308 310 313 310 300 296 292 287 280 271 252 206 190 210 222 226 251 280 281 281 292 283 277 283 272 260 255 255 252 252 258 251 243 239 240 242 234 236 236 226 230 226 221 232 216 195 206 200 195 180 176 201 197 172 180 177 184 213 186 183 212 165 133 81 116 148 158 162 157 160 175 139 130 119 105 87 77 73
346 343 334 331 336 341 339 334 324 315 316 321 330 344 339 321 312 310 306 219 171 167 194 224 222 232 250 269 273 277 298 286 275 275 270 269 256 251 251 251 253 247 242 238 238 237 229 228 229 221 225 220 204 208 211 198 193 197 200 187 174 189 182 160 171 179 190 204 182 191 218 116 123 113 118 136 147 144 135 128 90 85 91 91 84 72 66 67
346 345 339 341 349 348 345 344 336 330 332 337 359 21 21 9 2 41 70 103 121 159 218 221 207 238 249 264 280 286 303 294 277 276 280 281 261 246 247 248 250 246 237 236 234 228 218 217 219 208 211 215 204 199 202 197 192 189 187 182 166 181 196 175 167 176 181 189 177 183 207 149 123 127 133 139 141 128 120 106 81 84 88 87 83 75 68 64
346 349 347 350 358 357 356 357 353 359 358 2 13 5 5 1 343 41 60 73 184 201 251 229 208 230 285 298 300 294 294 287 282 285 287 283 252 230 236 238 237 237 231 223 217 208 194 198 218 211 206 204 199 200 203 211 201 186 178 163 152 173 207 200 179 173 165 165 187 181 197 190 138 117 134 141 136 124 121 100 85 89 89 85 84 78 72 66
350 354 351 355 5 6 10 19 20 21 17 19 13 3 14 1 342 114 349 307 260 260 290 279 232 251 282 295 297 296 292 284 282 281 275 269 241 217 222 224 222 235 237 217 202 191 180 187 217 209 210 197 193 201 208 236 240 175 163 155 162 179 193 195 179 165 166 161 200 180 176 223 173 128 140 134 124 115 108 95 88 89 85 84 85 81 76 70
359 359 355 360 10 11 18 26 26 27 28 23 14 22 43 7 349 331 329 312 277 270 277 280 268 262 272 288 294 298 300 295 281 263 272 273 241 208 206 200 194 217 229 228 231 187 174 200 219 210 215 201 192 197 207 238 249 97 149 164 170 184 178 186 170 153 171 181 202 170 159 232 212 65 53 70 73 56 76 91 91 90 86 85 85 81 78 72
3 2 3 5 11 14 18 22 24 27 27 18 13 28 31 359 348 325 318 302 295 294 275 275 275 271 282 293 290 292 289 286 273 246 281 281 222 209 199 189 184 199 225 230 238 214 182 213 221 209 214 210 195 189 200 229 208 110 148 170 164 172 121 107 140 144 173 198 194 171 175 191 62 52 42 52 66 59 66 82 87 88 84 79 79 76 74 71
359 2 5 5 12 20 20 20 18 17 14 3 6 9 347 347 350 335 312 283 296 304 290 286 282 280 293 296 286 293 279 275 277 240 291 287 215 216 202 186 183 194 235 228 216 215 201 215 217 206 206 210 199 184 192 221 211 165 145 147 159 167 158 134 145 149 154 211 165 159 168 140 79 66 48 53 77 76 72 75 76 78 77 73 73 73 70 68
354 360 2 3 11 18 19 20 14 10 357 345 2 344 324 338 344 336 317 276 284 295 289 297 305 289 289 298 290 290 283 282 291 299 323 288 224 206 195 183 177 187 230 233 226 232 241 233 212 202 205 207 198 183 187 201 203 184 150 126 143 156 147 103 135 140 121 20 49 124 129 89 68 70 55 47 73 79 76 75 71 71 74 73 72 71 69 67
349 355 -0 3 8 9 13 18 7 358 341 337 0 329 315 332 336 334 326 270 252 308 308 314 323 303 304 310 292 282 293 286 293 317 311 282 243 185 164 169 183 197 210 224 235 237 262 261 214 199 205 203 198 184 185 192 187 185 162 143 146 140 113 106 132 137 125 56 340 139 138 88 52 62 61 44 65 70 68 71 70 68 70 70 69 68 68 67
343 351 357 0 2 3 10 3 325 336 345 335 327 319 314 324 327 324 302 263 197 359 338 336 339 336 334 331 307 292 283 264 308 310 282 264 246 194 151 157 198 220 206 216 244 229 271 268 222 199 198 196 198 186 180 188 178 175 159 140 146 141 122 126 136 136 144 145 335 286 144 110 61 59 64 62 70 67 63 66 67 68 67 65 66 65 65 64
339 347 354 359 357 358 3 352 332 346 352 313 306 313 306 311 324 311 277 256 97 353 326 329 340 335 333 338 324 306 285 296 319 323 252 243 225 211 201 162 192 235 206 171 212 194 320 274 223 196 191 190 197 182 176 188 180 153 147 133 139 136 120 116 103 89 121 110 39 341 68 112 91 78 84 83 78 69 59 62 63 65 66 66 65 63 63 62
335 343 354 1 356 356 357 347 344 354 326 305 308 314 294 292 319 293 282 28 11 333 311 321 330 329 333 333 316 303 339 318 314 359 3 240 171 220 232 183 215 235 199 173 208 104 53 270 217 192 185 184 193 177 168 177 163 144 155 137 129 123 116 110 97 96 54 61 78 345 19 102 104 95 102 84 83 78 66 64 65 65 66 67 66 64 63 63
331 339 353 2 0 359 355 347 343 325 313 312 313 318 311 255 275 242 261 14 353 328 309 330 339 337 335 333 314 291 339 307 285 2 16 73 78 337 234 49 299 257 200 199 273 34 341 265 231 177 177 177 176 166 167 171 130 128 147 127 108 109 116 116 108 120 104 51 133 60 7 93 107 92 89 73 84 90 85 74 70 69 69 69 68 67 66 66
324 335 348 359 2 357 353 356 333 312 321 327 319 325 73 166 253 249 352 18 48 332 313 328 336 328 332 336 16 26 344 233 303 351 59 84 51 34 39 20 346 263 166 106 43 296 255 266 2 90 163 247 209 162 158 152 116 112 122 110 103 90 87 106 114 129 111 57 134 118 58 65 93 58 34 76 92 97 101 92 81 76 73 71 70 69 68 68
320 333 343 355 1 353 351 354 330 322 334 340 334 10 80 218 268 25 29 40 131 331 323 326 332 331 336 343 7 2 13 75 338 326 81 61 36 39 5 5 357 260 128 98 126 149 330 353 45 31 353 308 235 149 126 134 120 109 123 127 107 67 25 59 39 58 110 119 129 112 79 59 84 57 21 65 96 101 100 97 91 83 77 74 72 71 70 68
323 330 338 352 356 350 348 344 336 335 339 341 356 70 156 265 31 26 350 336 334 349 341 323 329 332 325 330 3 356 335 51 340 336 60 341 5 35 33 45 343 249 115 86 141 80 21 39 21 339 358 3 18 131 110 129 120 105 141 143 112 106 100 91 139 115 80 71 125 126 92 61 71 65 43 61 78 88 91 93 94 90 85 80 76 73 70 67
332 337 341 351 351 350 347 342 343 344 341 345 5 163 254 356 49 3 342 352 341 329 319 308 317 315 301 324 5 336 322 39 335 353 88 295 27 40 51 37 13 21 71 17 116 67 8 46 12 358 345 343 0 126 135 150 134 116 150 162 135 131 133 150 158 145 81 65 146 142 95 86 111 79 67 79 80 85 90 91 93 92 90 86 81 76 69 64
346 346 346 354 355 353 347 343 350 350 347 355 353 247 53 55 34 349 352 350 319 306 309 318 317 311 308 48 17 322 11 44 12 47 63 13 25 18 4 16 14 13 0 22 77 42 64 90 8 3 299 309 4 70 82 139 132 131 203 233 123 127 130 149 161 148 119 108 151 147 59 100 140 109 99 102 95 93 94 95 96 92 90 87 81 74 68 62
349 349 354 1 358 352 348 350 2 359 355 3 15 44 60 54 1 345 349 333 319 316 320 320 316 328 15 46 25 355 12 28 3 38 51 41 41 9 347 352 360 359 345 33 41 12 82 81 326 299 274 308 40 35 1 80 104 180 264 0 48 239 172 129 148 134 128 110 85 72 40 71 103 103 115 111 103 101 100 101 99 93 89 86 78 70 66 62
343 353 360 357 354 354 358 9 22 15 10 10 52 55 53 54 354 334 337 328 320 320 320 319 332 5 9 13 11 356 350 12 3 14 36 39 45 15 357 324 337 360 4 16 48 208 98 80 301 277 303 34 65 56 28 53 88 253 54 46 29 226 157 106 58 111 121 109 89 95 96 110 104 109 136 126 113 111 108 105 101 96 92 83 76 71 66 63
343 357 356 349 356 4 11 23 30 30 33 40 67 64 47 53 353 333 338 329 315 306 314 338 13 8 6 12 9 350 334 338 359 3 15 11 16 5 354 323 319 349 354 350 31 29 66 84 4 6 44 50 62 64 46 33 27 83 105 304 296 337 33 95 90 90 101 90 95 118 135 152 166 149 148 143 131 126 121 114 110 105 99 89 82 77 69 64
348 4 352 351 2 11 14 23 14 17 43 54 79 94 38 346 326 331 344 336 322 310 326 16 23 20 22 18 11 355 347 351 350 1 30 13 15 12 1 336 316 334 341 337 347 6 29 77 15 0 30 42 39 46 43 23 17 58 142 216 48 60 11 27 97 123 145 113 108 126 136 155 200 151 151 158 146 138 133 124 122 117 110 106 95 84 75 66
1 11 352 357 13 30 31 45 51 47 60 55 74 88 8 308 296 326 346 343 335 340 359 11 8 30 41 25 19 3 8 23 1 4 41 0 5 36 16 349 313 329 336 332 344 265 308 104 77 344 5 24 27 28 31 11 357 354 57 32 48 112 121 58 85 123 136 124 121 134 144 165 266 157 155 157 150 144 143 134 129 124 115 110 101 91 80 68
9 348 349 354 13 41 48 64 61 56 62 53 52 31 327 297 305 333 350 347 347 18 29 12 3 11 27 35 45 16 17 42 18 21 46 352 333 76 21 3 327 328 328 324 356 345 310 77 101 5 13 32 57 31 5 6 352 351 27 27 5 8 108 88 38 62 99 104 120 130 150 169 335 145 143 140 139 140 138 133 128 122 115 109 101 95 85 75
4 314 352 4 24 47 54 61 50 43 62 68 65 20 323 329 329 339 352 355 5 33 36 36 29 24 4 18 40 22 13 42 32 39 63 7 2 37 0 351 334 324 324 326 15 18 356 47 75 50 35 47 71 23 324 344 336 11 48 29 351 9 54 77 38 16 62 90 129 132 148 192 354 38 96 110 112 117 124 125 122 120 119 115 108 101 92 82
24 345 347 14 52 60 66 69 39 30 62 52 44 351 343 350 343 343 356 4 8 14 22 37 37 43 43 10 13 16 14 23 24 41 75 43 29 5 343 344 342 340 337 331 359 357 3 57 69 68 59 70 122 295 42 317 301 22 52 13 359 33 47 75 110 317 8 40 95 121 145 192 54 81 91 101 108 117 129 134 131 131 133 130 121 112 102 90
34 19 354 0 46 60 72 85 48 50 70 29 305 349 2 8 359 355 5 10 5 355 9 26 11 20 57 49 342 1 8 5 14 35 70 71 29 7 349 351 357 358 355 354 343 349 1 52 75 83 76 27 351 341 354 323 339 52 34 9 21 33 37 81 131 101 44 46 63 112 180 216 120 105 110 119 124 127 136 141 140 141 143 141 133 124 115 96
25 24 20 17 26 86 73 71 70 75 76 71 45 22 34 34 13 10 12 13 10 351 349 20 9 355 357 9 22 15 15 38 39 29 38 51 20 7 360 3 10 11 7 6 318 335 1 26 52 98 97 28 14 1 1 4 41 58 12 5 29 31 49 72 39 48 52 341 89 130 203 216 156 132 127 137 145 144 143 144 146 145 145 146 141 133 125 104
350 6 28 31 50 84 73 56 88 102 105 116 69 22 29 45 25 24 21 14 16 12 3 1 346 337 339 350 27 24 22 47 66 22 16 21 13 2 2 8 16 11 1 343 313 327 21 31 12 83 116 103 104 125 55 2 35 66 26 21 27 24 38 49 33 70 72 351 49 118 185 134 142 154 157 161 159 152 151 153 154 150 148 149 146 140 133 112
6 347 11 26 47 66 65 52 56 82 138 131 88 15 17 27 26 28 31 24 14 14 28 16 346 334 351 358 18 33 21 28 65 66 21 8 345 336 357 15 19 9 1 353 344 350 89 57 19 49 79 100 105 106 256 309 36 105 78 51 44 21 12 34 68 95 146 24 9 35 130 140 172 188 179 175 169 157 156 158 158 156 153 153 151 148 139 109
39 30 350 358 37 53 54 40 34 38 48 63 72 357 18 24 5 14 23 20 6 6 24 39 14 5 0 353 4 26 10 15 43 37 11 358 321 297 346 31 26 11 4 3 2 9 122 48 12 41 56 64 74 43 359 6 50 75 70 62 56 27 8 41 81 108 195 103 321 280 130 147 183 190 178 176 174 156 151 159 164 162 161 162 159 154 145 105
73 69 29 16 8 11 21 17 19 35 53 64 71 7 28 37 28 21 4 347 3 10 12 33 21 14 2 344 329 0 359 12 41 20 358 351 344 333 342 29 29 12 7 13 17 29 110 53 2 63 66 52 44 28 18 34 43 29 35 49 47 37 24 39 73 51 43 102 180 187 146 155 175 177 174 168 161 152 152 164 169 163 163 167 164 157 146 53
85 83 48 54 71 27 7 342 340 25 50 61 67 32 38 48 47 51 3 338 2 16 15 31 18 13 12 4 13 46 11 2 33 21 0 350 358 8 4 342 353 1 3 17 20 16 63 76 13 57 85 57 29 19 22 35 29 5 17 31 34 44 35 27 37 36 49 97 145 125 92 67 133 153 150 147 150 152 156 166 167 165 167 166 163 160 151 355
92 99 78 77 78 32 7 346 326 5 35 23 41 30 43 57 52 56 25 16 24 4 12 31 9 12 35 28 35 61 29 13 25 12 355 350 0 20 30 21 328 345 358 21 3 0 27 70 344 12 76 43 13 12 13 20 23 342 317 313 6 84 16 357 31 49 67 147 155 123 111 71 93 120 123 136 151 157 168 176 171 168 170 167 165 169 187 335
89 101 102 97 74 2 356 348 331 342 18 10 20 5 24 56 49 58 53 48 57 36 15 13 348 357 51 45 43 48 15 5 10 3 359 359 2 1 0 3 340 337 357 17 351 357 32 61 312 16 70 22 355 3 351 343 351 317 294 286 266 222 195 123 197 214 159 172 154 138 150 185 142 128 127 145 161 168 177 178 169 168 170 170 176 190 239 322
82 92 91 101 95 15 359 339 342 17 36 13 14 5 14 43 16 2 103 79 66 55 29 358 335 338 46 44 32 8 339 332 327 335 344 350 2 11 9 9 14 8 358 356 0 19 53 74 17 41 67 329 323 334 332 343 1 331 295 292 289 248 159 110 319 291 100 112 135 162 198 179 146 141 141 157 171 175 177 174 173 176 176 180 193 203 238 303
Height
1525 1524 1523 1522 1521 1520 1519 1518 1517 1516 1515 1514 1514 1514 1513 1513 1512 1511 1510 1510 1510 1509 1509 1509 1509 1508 1507 1506 1505 1504 1503 1502 1500 1500 1499 1498 1500 1500 1499 1499 1500 1501 1501 1501 1501 1502 1503 1505 1506 1507 1508 1509 1508 1509 1511 1513 1515 1518 1519 1520 1518 1514 1509 1503 1500 1500 1499 1499 1500 1500 1501 1502 1504 1505 1506 1506 1507 1507 1509 1510 1512 1513 1514 1515 1516 1517 1517 1518
1524 1523 1522 1521 1520 1519 1518 1517 1516 1515 1514 1513 1513 1512 1512 1511 1510 1510 1509 1508 1508 1508 1508 1508 1508 1507 1506 1505 1504 1503 1502 1500 1499 1497 1496 1496 1497 1497 1496 1497 1497 1499 1500 1500 1500 1502 1503 1504 1505 1506 1506 1506 1506 1507 1510 1511 1512 1513 1515 1516 1511 1505 1502 1499 1498 1498 1497 1498 1499 1500 1501 1501 1503 1504 1505 1507 1507 1507 1509 1510 1512 1514 1515 1516 1516 1517 1517 1518
1524 1523 1521 1520 1519 1518 1517 1516 1514 1513 1513 1512 1511 1511 1510 1510 1509 1508 1508 1507 1507 1506 1506 1506 1506 1506 1505 1504 1503 1502 1501 1499 1497 1495 1494 1494 1494 1494 1494 1495 1496 1497 1497 1498 1499 1501 1502 1503 1504 1504 1504 1504 1503 1505 1507 1508 1510 1509 1510 1511 1505 1500 1500 1499 1498 1499 1499 1497 1497 1500 1502 1502 1503 1504 1505 1506 1506 1506 1508 1510 1511 1513 1515 1516 1516 1517 1517 1518
1522 1521 1520 1519 1518 1517 1516 1514 1513 1512 1511 1510 1510 1509 1508 1508 1507 1507 1507 1506 1505 1505 1504 1504 1504 1505 1504 1503 1503 1501 1500 1498 1494 1492 1492 1492 1493 1493 1493 1494 1494 1495 1495 1496 1498 1500 1501 1503 1503 1504 1504 1502 1501 1503 1504 1504 1506 1506 1506 1504 1500 1499 1500 1500 1500 1500 1501 1499 1499 1502 1502 1503 1504 1505 1506 1506 1507 1508 1509 1511 1512 1514 1516 1516 1517 1517 1518 1518
1521 1520 1519 1518 1517 1515 1514 1513 1512 1510 1509 1508 1508 1507 1506 1506 1505 1505 1505 1505 1504 1503 1502 1503 1502 1503 1503 1502 1502 1500 1500 1498 1491 1490 1492 1492 1493 1493 1493 1494 1494 1494 1494 1496 1497 1499 1500 1502 1502 1503 1503 1500 1500 1501 1500 1500 1502 1503 1502 1500 1499 1499 1499 1500 1501 1502 1502 1502 1502 1504 1503 1504 1505 1506 1506 1506 1509 1510 1511 1512 1514 1515 1517 1517 1518 1518 1518 1519
1520 1519 1518 1516 1515 1514 1513 1511 1510 1509 1507 1506 1506 1505 1505 1504 1504 1504 1503 1503 1503 1502 1501 1501 1501 1501 1501 1501 1501 1500 1501 1497 1490 1490 1492 1493 1494 1493 1493 1493 1493 1493 1494 1495 1497 1498 1499 1501 1501 1502 1501 1499 1498 1498 1497 1498 1500 1501 1500 1500 1499 1498 1499 1501 1503 1503 1502 1503 1505 1508 1506 1504 1505 1506 1507 1507 1508 1511 1512 1513 1515 1516 1517 1518 1518 1518 1519 1520
1519 1518 1516 1515 1514 1513 1511 1510 1509 1507 1506 1505 1504 1504 1503 1502 1502 1502 1502 1501 1501 1501 1500 1499 1499 1500 1500 1500 1499 1499 1498 1493 1490 1492 1491 1492 1493 1493 1493 1493 1493 1493 1494 1495 1496 1497 1498 1500 1500 1500 1500 1498 1496 1495 1495 1497 1498 1499 1499 1498 1498 1499 1500 1502 1504 1502 1501 1502 1505 1507 1505 1504 1504 1506 1507 1508 1509 1511 1512 1513 1515 1516 1517 1518 1519 1519 1520 1520
1517 1516 1515 1513 1512 1511 1510 1508 1507 1506 1505 1504 1503 1502 1501 1500 1500 1500 1500 1499 1499 1499 1499 1498 1498 1499 1499 1499 1498 1497 1495 1492 1491 1492 1490 1490 1491 1491 1492 1492 1493 1493 1493 1495 1495 1497 1498 1498 1498 1499 1499 1497 1496 1495 1495 1497 1497 1498 1497 1497 1498 1500 1501 1504 1505 1501 1500 1501 1502 1504 1503 1503 1505 1507 1508 1508 1510 1511 1512 1514 1515 1516 1517 1518 1519 1520 1521 1521
1516 1515 1513 1512 1510 1509 1508 1507 1506 1505 1504 1502 1501 1500 1499 1499 1498 1498 1498 1498 1498 1498 1497 1497 1497 1498 1498 1498 1498 1496 1492 1490 1492 1491 1490 1489 1490 1490 1490 1491 1492 1492 1492 1493 1494 1496 1496 1496 1496 1497 1498 1497 1496 1495 1494 1497 1497 1495 1496 1497 1498 1500 1501 1505 1506 1502 1499 1500 1501 1503 1504 1505 1506 1508 1509 1509 1510 1511 1512 1514 1515 1516 1517 1518 1520 1520 1521 1522
1515 1513 1512 1510 1509 1508 1507 1506 1505 1503 1502 1501 1499 1498 1497 1497 1496 1496 1496 1496 1496 1496 1496 1496 1496 1497 1497 1497 1498 1494 1489 1489 1491 1491 1489 1489 1489 1490 1490 1490 1490 1490 1492 1492 1493 1494 1494 1495 1496 1498 1498 1497 1495 1495 1494 1495 1495 1494 1496 1498 1497 1498 1501 1506 1508 1504 1500 1500 1500 1502 1505 1506 1507 1510 1511 1510 1510 1511 1512 1514 1515 1516 1517 1519 1520 1521 1522 1523
1514 1512 1511 1509 1508 1507 1506 1505 1503 1502 1500 1499 1498 1497 1496 1495 1495 1494 1494 1494 1494 1495 1495 1494 1495 1495 1496 1496 1495 1491 1488 1489 1490 1490 1489 1488 1488 1488 1489 1489 1489 1489 1490 1491 1492 1493 1494 1495 1497 1498 1498 1496 1495 1495 1493 1493 1494 1494 1496 1498 1497 1498 1502 1505 1507 1505 1501 1500 1500 1502 1504 1506 1508 1510 1509 1509 1510 1511 1512 1513 1515 1516 1517 1519 1521 1523 1523 1524
1513 1511 1510 1508 1507 1506 1504 1503 1502 1500 1499 1497 1496 1495 1494 1493 1493 1493 1492 1493 1493 1493 1493 1493 1494 1494 1494 1494 1490 1486 1487 1488 1488 1488 1488 1488 1488 1487 1487 1488 1488 1488 1489 1489 1490 1491 1493 1494 1495 1496 1495 1494 1495 1494 1492 1491 1493 1494 1496 1499 1498 1498 1501 1503 1505 1506 1502 1500 1500 1502 1507 1507 1506 1507 1507 1508 1510 1511 1512 1513 1515 1516 1518 1520 1522 1523 1524 1526
1512 1510 1509 1508 1506 1504 1503 1501 1500 1498 1497 1495 1494 1493 1493 1491 1491 1491 1491 1491 1491 1491 1491 1492 1492 1493 1494 1490 1485 1484 1486 1486 1486 1486 1486 1487 1486 1486 1486 1486 1486 1487 1487 1488 1489 1490 1491 1492 1493 1493 1493 1493 1493 1493 1491 1490 1492 1494 1496 1498 1500 1502 1501 1499 1503 1506 1502 1500 1499 1503 1511 1509 1502 1502 1504 1506 1509 1510 1512 1513 1515 1516 1518 1521 1522 1524 1525 1527
1511 1509 1508 1506 1504 1502 1500 1498 1497 1496 1495 1493 1492 1491 1490 1489 1489 1489 1489 1489 1489 1490 1490 1490 1491 1492 1492 1486 1482 1485 1485 1484 1485 1484 1484 1485 1484 1484 1485 1485 1484 1485 1486 1486 1487 1489 1490 1491 1491 1491 1492 1492 1492 1492 1492 1491 1491 1493 1496 1497 1500 1504 1499 1495 1500 1503 1502 1501 1498 1503 1512 1507 1499 1498 1499 1503 1506 1509 1511 1513 1514 1516 1518 1521 1522 1525 1526 1528
1510 1509 1507 1504 1502 1500 1497 1496 1495 1494 1493 1491 1490 1489 1488 1487 1487 1486 1487 1487 1487 1488 1488 1489 1489 1490 1489 1484 1482 1483 1483 1483 1483 1482 1483 1483 1483 1483 1483 1484 1483 1483 1484 1485 1486 1487 1488 1489 1490 1490 1490 1491 1492 1494 1493 1492 1491 1491 1496 1499 1499 1501 1497 1495 1497 1499 1502 1502 1498 1503 1511 1506 1500 1498 1497 1501 1505 1508 1511 1512 1513 1514 1517 1519 1522 1525 1527 1527
1509 1508 1505 1503 1500 1498 1495 1493 1493 1492 1491 1490 1488 1487 1486 1485 1484 1485 1484 1484 1485 1486 1487 1488 1488 1489 1488 1484 1482 1482 1482 1482 1482 1481 1482 1481 1482 1482 1482 1482 1482 1482 1483 1484 1485 1486 1487 1488 1489 1489 1489 1490 1491 1494 1493 1494 1494 1492 1494 1497 1497 1498 1498 1497 1497 1496 1500 1502 1500 1503 1506 1504 1502 1500 1500 1502 1505 1508 1511 1513 1514 1515 1516 1518 1521 1525 1526 1527
1508 1507 1504 1501 1498 1496 1494 1492 1492 1491 1489 1488 1487 1486 1485 1484 1484 1484 1483 1484 1484 1485 1486 1487 1487 1488 1486 1481 1480 1481 1481 1481 1481 1481 1480 1480 1481 1480 1481 1481 1480 1481 1481 1483 1483 1484 1485 1486 1487 1487 1488 1488 1488 1491 1494 1494 1495 1494 1494 1495 1495 1496 1497 1498 1497 1495 1498 1501 1501 1502 1503 1503 1502 1502 1502 1504 1506 1508 1510 1513 1515 1516 1517 1519 1522 1525 1527 1528
1507 1506 1504 1500 1497 1496 1494 1492 1491 1490 1489 1487 1487 1486 1485 1484 1484 1484 1483 1484 1484 1485 1486 1486 1487 1488 1484 1480 1480 1480 1479 1480 1480 1479 1479 1479 1479 1479 1480 1480 1480 1480 1481 1482 1481 1482 1484 1485 1485 1486 1486 1487 1486 1489 1491 1488 1487 1490 1493 1495 1495 1495 1497 1498 1496 1494 1496 1499 1501 1503 1504 1503 1503 1503 1504 1505 1506 1508 1510 1513 1515 1516 1518 1521 1523 1527 1529 1529
1507 1505 1503 1500 1497 1495 1494 1492 1491 1490 1489 1487 1487 1486 1485 1485 1484 1484 1484 1484 1484 1485 1485 1484 1485 1485 1481 1479 1480 1479 1478 1479 1478 1478 1478 1477 1477 1478 1478 1478 1478 1479 1481 1481 1480 1480 1482 1484 1485 1485 1485 1484 1484 1485 1485 1480 1477 1481 1486 1490 1494 1496 1497 1496 1495 1492 1494 1500 1502 1502 1504 1503 1503 1505 1505 1505 1506 1508 1510 1513 1517 1519 1520 1522 1523 1527 1530 1532
1506 1504 1502 1500 1498 1496 1494 1493 1491 1491 1489 1488 1487 1485 1485 1486 1484 1484 1484 1484 1484 1483 1483 1483 1483 1481 1479 1478 1479 1478 1477 1477 1477 1476 1476 1476 1476 1476 1476 1477 1477 1479 1480 1480 1479 1478 1480 1484 1483 1481 1479 1478 1479 1480 1480 1477 1474 1477 1483 1489 1493 1496 1497 1495 1495 1494 1494 1500 1503 1501 1504 1504 1504 1506 1506 1507 1507 1508 1511 1514 1519 1521 1523 1525 1526 1529 1532 1535
1505 1504 1502 1500 1498 1496 1495 1493 1492 1492 1490 1489 1488 1487 1488 1488 1487 1487 1486 1483 1482 1482 1482 1481 1481 1480 1478 1478 1478 1477 1477 1475 1475 1475 1474 1474 1475 1475 1475 1476 1477 1478 1478 1477 1478 1478 1479 1482 1478 1475 1473 1472 1475 1477 1479 1478 1477 1481 1485 1488 1491 1494 1495 1493 1493 1495 1495 1500 1503 1502 1506 1508 1508 1510 1511 1511 1512 1514 1515 1516 1520 1523 1526 1528 1529 1532 1535 1538
1505 1504 1502 1500 1498 1497 1495 1494 1493 1492 1491 1490 1490 1490 1490 1490 1489 1489 1487 1484 1482 1481 1481 1480 1480 1479 1477 1478 1477 1476 1476 1475 1474 1474 1474 1474 1474 1475 1474 1474 1476 1477 1476 1477 1478 1478 1480 1479 1472 1470 1471 1470 1472 1476 1479 1478 1479 1485 1487 1487 1491 1492 1493 1493 1494 1495 1496 1501 1503 1502 1507 1511 1514 1517 1519 1519 1519 1521 1522 1521 1523 1525 1528 1531 1533 1536 1538 1539
1505 1504 1502 1500 1498 1497 1495 1494 1493 1492 1491 1491 1491 1490 1490 1490 1488 1488 1488 1486 1483 1480 1480 1480 1479 1478 1477 1477 1476 1475 1476 1474 1473 1473 1473 1473 1473 1473 1473 1473 1475 1476 1477 1477 1477 1478 1477 1472 1466 1467 1469 1470 1471 1473 1477 1479 1478 1483 1486 1489 1492 1491 1492 1495 1496 1496 1498 1502 1502 1502 1507 1512 1518 1522 1525 1527 1524 1525 1528 1527 1527 1528 1531 1535 1537 1539 1540 1541
1505 1503 1502 1500 1498 1497 1495 1495 1494 1492 1492 1492 1491 1490 1490 1489 1488 1488 1488 1486 1483 1480 1479 1479 1478 1477 1477 1476 1475 1475 1475 1473 1473 1473 1472 1472 1471 1472 1472 1472 1474 1476 1476 1475 1475 1476 1472 1465 1464 1467 1468 1469 1470 1472 1476 1480 1480 1480 1483 1489 1493 1492 1491 1494 1496 1497 1500 1503 1501 1503 1510 1518 1524 1527 1532 1534 1529 1529 1532 1532 1533 1534 1536 1539 1540 1541 1543 1543
1505 1504 1502 1500 1499 1497 1495 1495 1494 1493 1493 1492 1491 1491 1489 1489 1489 1488 1487 1486 1484 1481 1479 1479 1478 1477 1476 1475 1474 1474 1474 1473 1472 1472 1472 1471 1470 1470 1471 1471 1473 1474 1474 1473 1474 1475 1470 1464 1464 1466 1467 1467 1468 1471 1473 1477 1480 1481 1482 1485 1490 1493 1491 1493 1496 1496 1503 1507 1505 1503 1512 1526 1535 1535 1540 1542 1536 1536 1538 1536 1537 1539 1540 1541 1543 1545 1546 1546
1505 1503 1502 1501 1499 1497 1496 1495 1494 1493 1493 1491 1491 1491 1489 1489 1488 1488 1488 1486 1483 1481 1479 1478 1477 1477 1476 1475 1474 1473 1474 1472 1471 1471 1470 1469 1469 1469 1470 1471 1472 1471 1471 1471 1472 1471 1467 1463 1462 1463 1465 1465 1466 1468 1471 1473 1477 1482 1481 1480 1485 1489 1491 1494 1495 1497 1505 1509 1507 1504 1509 1527 1541 1542 1546 1547 1543 1543 1543 1541 1542 1543 1543 1544 1545 1548 1548 1549
1504 1503 1502 1500 1498 1497 1495 1494 1493 1493 1492 1492 1491 1489 1488 1488 1487 1488 1487 1483 1483 1483 1480 1479 1478 1477 1476 1474 1474 1474 1474 1473 1470 1470 1469 1469 1469 1468 1469 1470 1470 1470 1469 1470 1470 1468 1466 1462 1460 1461 1462 1464 1466 1466 1468 1469 1475 1481 1479 1479 1484 1486 1490 1495 1496 1502 1509 1508 1508 1505 1505 1522 1539 1546 1550 1548 1545 1548 1548 1547 1548 1547 1547 1548 1549 1550 1550 1551
1504 1503 1502 1500 1498 1497 1495 1494 1493 1492 1492 1491 1489 1487 1488 1487 1487 1489 1486 1483 1486 1485 1481 1481 1478 1477 1476 1474 1473 1473 1474 1473 1471 1470 1469 1468 1468 1468 1469 1469 1469 1468 1467 1468 1468 1466 1467 1464 1459 1458 1460 1463 1463 1463 1464 1467 1475 1480 1478 1479 1483 1485 1490 1495 1499 1507 1511 1509 1512 1512 1509 1519 1536 1546 1550 1548 1546 1550 1553 1552 1552 1551 1551 1551 1552 1552 1553 1553
1503 1502 1501 1500 1498 1496 1495 1493 1491 1491 1491 1489 1487 1486 1486 1486 1487 1487 1485 1485 1488 1486 1483 1481 1478 1477 1476 1473 1473 1473 1472 1472 1471 1470 1469 1469 1469 1468 1469 1469 1469 1468 1467 1468 1467 1467 1469 1466 1459 1456 1458 1460 1459 1460 1462 1466 1474 1479 1480 1482 1483 1486 1490 1494 1501 1508 1510 1510 1514 1517 1517 1520 1535 1547 1549 1547 1548 1552 1555 1556 1555 1556 1556 1555 1555 1555 1555 1555
1503 1502 1501 1499 1498 1496 1495 1493 1492 1491 1489 1487 1487 1485 1484 1487 1486 1483 1485 1489 1490 1487 1483 1481 1479 1478 1476 1473 1473 1472 1472 1473 1472 1471 1470 1470 1470 1469 1468 1468 1468 1468 1467 1468 1469 1469 1468 1463 1459 1459 1463 1462 1458 1459 1461 1465 1471 1476 1482 1486 1487 1491 1492 1494 1499 1501 1507 1512 1513 1520 1521 1519 1533 1550 1550 1547 1550 1552 1554 1556 1558 1559 1559 1559 1558 1557 1557 1557
1502 1501 1501 1499 1498 1496 1494 1493 1492 1490 1488 1487 1485 1483 1485 1486 1482 1483 1491 1493 1491 1487 1484 1482 1480 1478 1477 1477 1475 1473 1473 1473 1472 1472 1472 1471 1470 1469 1468 1468 1469 1468 1466 1468 1469 1469 1465 1461 1461 1463 1465 1463 1458 1461 1466 1466 1468 1475 1483 1486 1491 1498 1498 1499 1501 1500 1506 1513 1516 1522 1521 1521 1536 1553 1555 1551 1551 1552 1553 1556 1559 1560 1561 1561 1560 1560 1559 1559
1501 1501 1500 1499 1498 1496 1494 1492 1491 1489 1487 1486 1484 1485 1485 1483 1485 1493 1496 1492 1491 1491 1488 1485 1483 1480 1479 1478 1477 1476 1474 1474 1473 1472 1473 1473 1471 1470 1470 1470 1470 1465 1463 1466 1467 1467 1466 1465 1466 1465 1465 1464 1462 1467 1473 1473 1472 1477 1483 1485 1491 1501 1505 1507 1508 1507 1509 1513 1518 1520 1519 1531 1549 1559 1559 1556 1554 1554 1555 1557 1560 1561 1563 1563 1562 1561 1560 1559
1501 1501 1500 1499 1498 1496 1494 1492 1490 1488 1487 1485 1484 1485 1483 1485 1496 1502 1498 1496 1497 1495 1491 1488 1485 1482 1480 1478 1479 1478 1475 1475 1474 1473 1473 1472 1470 1471 1470 1470 1469 1465 1464 1465 1465 1467 1468 1467 1468 1468 1467 1467 1465 1468 1475 1479 1479 1481 1483 1484 1488 1497 1505 1508 1506 1507 1514 1519 1519 1515 1519 1540 1558 1560 1560 1559 1558 1557 1557 1559 1562 1563 1564 1564 1563 1562 1561 1560
1501 1500 1500 1499 1497 1495 1493 1492 1490 1489 1486 1485 1484 1483 1486 1495 1504 1504 1501 1502 1500 1494 1491 1490 1487 1482 1478 1478 1480 1478 1476 1475 1474 1474 1474 1472 1472 1474 1472 1469 1468 1469 1468 1466 1466 1470 1471 1472 1476 1477 1474 1469 1467 1468 1471 1474 1478 1482 1481 1478 1481 1488 1495 1499 1497 1500 1511 1518 1518 1519 1529 1544 1555 1559 1561 1560 1559 1559 1559 1561 1562 1563 1564 1564 1563 1562 1561 1561
1501 1500 1499 1498 1496 1495 1493 1492 1491 1489 1487 1486 1486 1488 1496 1506 1509 1506 1506 1504 1499 1495 1492 1490 1487 1482 1477 1477 1479 1478 1477 1476 1474 1474 1475 1476 1480 1482 1479 1475 1472 1472 1470 1468 1471 1474 1475 1481 1484 1482 1478 1472 1470 1471 1469 1471 1478 1481 1479 1478 1482 1486 1487 1490 1491 1494 1503 1514 1521 1532 1545 1550 1553 1559 1560 1558 1560 1559 1560 1562 1562 1563 1564 1563 1563 1562 1561 1562
1501 1500 1499 1498 1497 1496 1494 1492 1491 1489 1488 1487 1489 1498 1508 1512 1511 1509 1507 1504 1501 1500 1495 1490 1487 1485 1482 1481 1481 1479 1478 1476 1474 1475 1478 1481 1484 1486 1485 1481 1477 1476 1475 1474 1475 1474 1477 1484 1484 1480 1478 1473 1472 1474 1472 1475 1479 1479 1480 1484 1485 1483 1484 1488 1492 1492 1497 1512 1528 1542 1554 1557 1556 1559 1558 1557 1560 1559 1559 1562 1561 1563 1564 1563 1564 1563 1563 1563
1501 1500 1499 1498 1497 1496 1494 1493 1492 1491 1490 1488 1494 1507 1514 1513 1511 1509 1506 1503 1502 1501 1499 1494 1491 1491 1491 1489 1488 1485 1480 1477 1476 1479 1484 1485 1486 1490 1491 1485 1480 1479 1479 1478 1476 1472 1474 1482 1482 1478 1478 1476 1474 1475 1475 1476 1478 1479 1484 1486 1483 1481 1481 1484 1492 1497 1498 1512 1531 1542 1551 1555 1553 1554 1556 1556 1558 1559 1559 1560 1561 1563 1563 1564 1564 1564 1564 1563
1501 1500 1500 1499 1497 1496 1495 1494 1493 1492 1492 1492 1499 1510 1514 1512 1510 1508 1505 1503 1501 1500 1499 1498 1495 1494 1496 1495 1495 1491 1485 1483 1483 1483 1488 1492 1493 1496 1496 1491 1484 1481 1481 1480 1477 1474 1474 1482 1485 1480 1479 1479 1476 1476 1480 1481 1478 1480 1484 1483 1483 1488 1488 1484 1492 1502 1502 1511 1531 1542 1545 1547 1544 1546 1552 1555 1556 1557 1558 1559 1561 1563 1563 1564 1565 1565 1564 1563
1501 1500 1500 1500 1498 1497 1496 1495 1494 1492 1492 1497 1505 1511 1514 1514 1510 1507 1505 1503 1501 1500 1501 1503 1500 1496 1497 1498 1497 1495 1491 1492 1492 1488 1492 1499 1499 1497 1498 1497 1490 1483 1482 1480 1480 1479 1475 1479 1488 1485 1478 1480 1482 1487 1494 1494 1486 1482 1483 1483 1484 1489 1493 1492 1493 1497 1498 1506 1526 1539 1543 1543 1541 1541 1547 1551 1553 1555 1557 1559 1560 1562 1563 1564 1564 1564 1564 1563
1502 1501 1501 1500 1499 1498 1497 1496 1495 1494 1499 1506 1511 1514 1516 1514 1510 1508 1506 1503 1501 1501 1504 1506 1504 1501 1500 1498 1496 1496 1494 1496 1497 1495 1499 1504 1503 1497 1496 1498 1493 1487 1483 1478 1479 1481 1471 1471 1487 1489 1481 1485 1496 1502 1505 1504 1498 1492 1490 1492 1493 1491 1491 1494 1496 1497 1499 1504 1516 1529 1538 1542 1542 1542 1543 1547 1551 1553 1555 1557 1559 1561 1562 1562 1563 1563 1563 1563
1503 1502 1502 1501 1499 1499 1498 1497 1498 1500 1507 1513 1515 1517 1517 1514 1511 1508 1506 1504 1502 1502 1503 1505 1506 1507 1506 1501 1499 1498 1497 1498 1500 1501 1504 1506 1506 1502 1498 1497 1496 1490 1485 1480 1480 1482 1477 1476 1488 1494 1494 1500 1507 1507 1505 1505 1503 1500 1499 1500 1501 1497 1494 1497 1501 1501 1501 1504 1509 1517 1531 1543 1546 1544 1544 1547 1551 1553 1554 1557 1558 1560 1561 1561 1562 1562 1562 1563
1503 1504 1504 1501 1500 1500 1498 1500 1505 1507 1512 1517 1518 1519 1517 1515 1513 1510 1507 1505 1503 1502 1502 1504 1506 1508 1510 1508 1506 1504 1502 1502 1502 1503 1507 1508 1508 1507 1503 1499 1496 1492 1489 1487 1486 1486 1485 1486 1494 1502 1505 1506 1507 1504 1504 1505 1503 1500 1502 1503 1502 1501 1501 1503 1507 1507 1504 1506 1509 1509 1519 1540 1549 1545 1547 1550 1551 1554 1556 1557 1558 1559 1560 1561 1561 1562 1562 1562
1506 1506 1505 1502 1502 1500 1499 1504 1510 1513 1516 1520 1520 1519 1518 1517 1515 1513 1510 1508 1506 1505 1504 1504 1505 1506 1509 1511 1511 1508 1507 1508 1506 1505 1507 1509 1508 1508 1505 1501 1497 1494 1492 1493 1492 1488 1487 1491 1500 1507 1508 1506 1505 1504 1503 1503 1503 1503 1506 1506 1505 1505 1508 1508 1509 1511 1509 1508 1509 1507 1515 1539 1552 1548 1549 1552 1553 1555 1556 1556 1558 1558 1560 1560 1561 1562 1562 1562
1509 1508 1506 1504 1502 1500 1502 1507 1513 1516 1519 1520 1519 1519 1518 1518 1517 1515 1514 1513 1512 1509 1507 1507 1508 1506 1507 1508 1508 1509 1507 1508 1511 1510 1508 1510 1510 1509 1506 1503 1500 1498 1498 1500 1499 1493 1493 1499 1501 1503 1506 1508 1506 1506 1505 1504 1506 1510 1511 1510 1509 1508 1509 1509 1508 1510 1511 1508 1508 1508 1518 1541 1551 1548 1551 1553 1553 1555 1555 1556 1557 1557 1559 1560 1560 1561 1562 1562
1510 1510 1508 1506 1504 1502 1506 1511 1513 1516 1519 1520 1520 1520 1519 1519 1519 1518 1518 1517 1515 1514 1512 1512 1510 1509 1507 1506 1506 1508 1507 1507 1512 1514 1513 1513 1512 1510 1508 1506 1504 1502 1501 1502 1501 1498 1502 1508 1505 1499 1500 1503 1506 1509 1513 1513 1512 1514 1515 1513 1513 1511 1510 1511 1510 1511 1514 1512 1508 1510 1525 1547 1553 1549 1551 1553 1552 1554 1555 1555 1557 1557 1558 1559 1560 1561 1561 1561
1511 1512 1512 1511 1509 1508 1511 1514 1513 1515 1518 1518 1521 1523 1521 1521 1521 1519 1519 1519 1518 1517 1516 1515 1512 1510 1509 1508 1507 1509 1510 1510 1512 1516 1519 1518 1514 1512 1510 1508 1507 1505 1502 1501 1499 1499 1505 1514 1514 1508 1506 1509 1515 1518 1519 1518 1514 1515 1518 1516 1516 1516 1514 1513 1513 1513 1517 1517 1515 1518 1532 1549 1553 1550 1549 1551 1550 1552 1553 1554 1556 1556 1557 1558 1559 1560 1561 1561
1514 1518 1518 1517 1515 1514 1515 1516 1516 1516 1516 1517 1522 1525 1524 1524 1523 1521 1520 1520 1520 1519 1518 1518 1517 1515 1515 1514 1512 1512 1514 1514 1515 1518 1520 1519 1517 1514 1512 1511 1510 1508 1505 1503 1500 1499 1505 1515 1519 1519 1519 1520 1522 1522 1520 1518 1517 1517 1520 1519 1519 1519 1517 1515 1516 1519 1520 1519 1521 1527 1535 1541 1546 1547 1546 1548 1549 1550 1552 1553 1554 1555 1556 1557 1558 1559 1560 1560
1516 1521 1522 1520 1521 1522 1521 1520 1520 1519 1518 1518 1523 1526 1525 1526 1527 1526 1525 1522 1521 1521 1520 1521 1522 1521 1520 1517 1515 1518 1519 1516 1518 1522 1522 1521 1518 1514 1513 1511 1510 1510 1509 1506 1504 1503 1509 1520 1523 1521 1524 1524 1524 1523 1522 1521 1522 1521 1521 1521 1521 1522 1521 1520 1521 1522 1522 1521 1524 1531 1532 1532 1538 1543 1543 1545 1548 1549 1551 1553 1553 1554 1555 1556 1557 1558 1559 1559
1516 1520 1521 1521 1524 1526 1526 1524 1523 1522 1521 1521 1525 1528 1527 1527 1529 1530 1529 1526 1524 1524 1524 1526 1527 1525 1523 1520 1518 1524 1525 1521 1522 1526 1527 1525 1522 1519 1519 1515 1512 1512 1511 1509 1509 1508 1512 1523 1525 1522 1525 1528 1526 1526 1525 1524 1525 1524 1523 1523 1524 1524 1523 1524 1525 1524 1524 1525 1527 1530 1531 1533 1537 1539 1542 1545 1547 1549 1551 1552 1552 1554 1554 1555 1556 1557 1557 1557
1517 1519 1521 1522 1524 1526 1526 1525 1524 1524 1523 1523 1526 1529 1529 1529 1530 1530 1530 1529 1529 1529 1528 1530 1531 1528 1528 1526 1525 1529 1532 1530 1530 1531 1530 1528 1526 1525 1526 1525 1521 1517 1514 1513 1514 1511 1513 1522 1526 1523 1525 1529 1529 1527 1526 1526 1527 1526 1525 1524 1524 1525 1526 1525 1525 1525 1526 1527 1527 1529 1534 1539 1540 1540 1542 1546 1547 1548 1550 1551 1551 1553 1553 1554 1555 1556 1556 1556
1519 1520 1520 1521 1525 1527 1527 1526 1525 1525 1527 1528 1529 1530 1530 1531 1531 1531 1531 1532 1533 1533 1533 1533 1532 1530 1530 1531 1532 1534 1535 1534 1534 1534 1533 1531 1531 1530 1529 1530 1529 1524 1521 1520 1518 1517 1518 1522 1525 1523 1521 1527 1533 1530 1527 1528 1528 1527 1527 1526 1525 1525 1526 1526 1526 1526 1525 1525 1526 1529 1533 1538 1541 1542 1544 1546 1547 1548 1549 1549 1550 1551 1552 1553 1554 1554 1554 1554
1521 1522 1521 1521 1524 1527 1528 1528 1527 1527 1532 1534 1534 1533 1533 1532 1532 1531 1532 1533 1533 1533 1534 1533 1533 1532 1532 1534 1536 1536 1536 1535 1535 1535 1534 1533 1532 1532 1531 1530 1530 1528 1528 1525 1523 1524 1525 1524 1524 1522 1520 1527 1533 1532 1531 1528 1520 1518 1526 1531 1529 1526 1524 1526 1527 1526 1526 1526 1526 1529 1532 1536 1539 1541 1543 1544 1545 1546 1547 1548 1549 1549 1550 1551 1551 1551 1551 1551